Location: Sternwarte ZA, Rosenfeld-Brittheim
(48.2889°N, 8.6789°E)
Time: 02:14:46
(UTC+02:00)

ISS - Pass Details

Date: 16 July 2018
Orbit: 402 x 408 km, 51.6° (Epoch: 17 July)

Event Time Altitude Azimuth Distance (km) Brightness Sun altitude
Exits shadow 00:59:18 19° 81° (E) 1,034 -1.8 -19.9°
Drops below altitude 10° 01:00:26 10° 74° (ENE) 1,470 -0.9 -20.0°
Sets 01:02:34 0° 69° (ENE) 2,334 0.2 -20.0°
